{"data":{"norad_id":59920,"intl_designator":"2024-105D","name":"2024-105D","alt_names":[],"object_type":"PAYLOAD","status":"ACTIVE","operator":null,"country":"PRC","launch_date":"2024-05-30","launch_site_code":"JSC","launch_vehicle":null,"mission":null,"orbit_class":"UNKNOWN","rcs_meters":null,"size_class":null,"mass_kg":null,"dimensions":null,"purposes":[],"wikipedia_slug":null,"has_3d_model":false,"image_url":null,"decayed_at":null,"tle_current":{"epoch":"2026-09-22T23:35:03.103584Z","epoch_age_seconds":61007,"freshness":"FRESH","line1":"1 59920U 24105D   26265.98267481  .00003730  00000+0  15926-3 0  9991","line2":"2 59920  97.5807 285.8725 0010019 231.9072 128.1261 15.23495664128147","mean_motion":15.23495664,"eccentricity":0.0010019,"inclination_deg":97.5807,"raan_deg":285.8725,"arg_perigee_deg":231.9072,"mean_anomaly_deg":128.1261,"bstar":0.00015926,"rev_number":12814,"period_min":94.519468222129,"perigee_km":488.41987905136,"apogee_km":502.19288490016,"semimajor_km":6873.4433819758,"source":"CELESTRAK","updated_at":"2026-09-23T09:00:20.348128Z"}}}